Time,TemperatureF,DewpointF,PressureIn,WindDirection,WindDirectionDegrees,WindSpeedMPH,WindSpeedGustMPH,Humidity,HourlyPrecipIn,Conditions,Clouds,dailyrainin,SoftwareType,DateUTC
2013-02-14 00:03:00,38.3,11.7,30.21,ENE,68,0.0,2.2,33,-99.99,,,-99.99,WSDL version 423,2013-02-14 08:03:00,
2013-02-14 00:08:00,38.6,11.9,30.21,ENE,68,1.0,2.7,33,-99.99,,,-99.99,WSDL version 423,2013-02-14 08:08:00,
2013-02-14 00:13:00,38.3,12.1,30.21,ENE,68,0.0,2.7,34,-99.99,,,-99.99,WSDL version 423,2013-02-14 08:13:00,
2013-02-14 00:18:00,38.2,12.3,30.21,ENE,68,0.0,3.1,34,-99.99,,,-99.99,WSDL version 423,2013-02-14 08:18:00,
2013-02-14 00:23:00,39.0,12.5,30.21,WNW,293,4.0,5.4,33,-99.99,,,-99.99,WSDL version 423,2013-02-14 08:23:00,
2013-02-14 00:28:00,39.1,12.4,30.21,WNW,293,3.6,5.4,33,-99.99,,,-99.99,WSDL version 423,2013-02-14 08:28:00,
2013-02-14 00:33:00,39.2,12.5,30.21,WNW,293,2.0,5.4,33,-99.99,,,-99.99,WSDL version 423,2013-02-14 08:33:00,
2013-02-14 00:38:00,38.9,12.3,30.21,SSW,203,1.7,4.0,33,-99.99,,,-99.99,WSDL version 423,2013-02-14 08:38:00,
2013-02-14 00:43:00,39.3,12.6,30.21,SSW,203,2.6,3.6,33,-99.99,,,-99.99,WSDL version 423,2013-02-14 08:43:00,
2013-02-14 00:48:00,39.6,12.9,30.21,SSW,203,1.5,3.6,33,-99.99,,,-99.99,WSDL version 423,2013-02-14 08:48:00,
2013-02-14 00:53:00,39.9,13.1,30.21,SSW,203,2.6,3.6,33,-99.99,,,-99.99,WSDL version 423,2013-02-14 08:53:00,
2013-02-14 00:58:00,39.4,12.7,30.21,SSE,158,1.9,3.6,33,-99.99,,,-99.99,WSDL version 423,2013-02-14 08:58:00,
2013-02-14 01:03:00,38.7,12.0,30.21,SSE,158,0.0,3.1,33,-99.99,,,-99.99,WSDL version 423,2013-02-14 09:03:00,
2013-02-14 01:08:00,38.2,11.7,30.21,SSE,158,1.0,2.7,33,-99.99,,,-99.99,WSDL version 423,2013-02-14 09:08:00,
2013-02-14 01:13:00,38.2,11.7,30.21,WNW,293,2.3,4.0,34,-99.99,,,-99.99,WSDL version 423,2013-02-14 09:13:00,
2013-02-14 01:18:00,37.9,11.8,30.21,WNW,293,0.0,4.0,34,-99.99,,,-99.99,WSDL version 423,2013-02-14 09:18:00,
2013-02-14 01:23:00,38.0,12.1,30.21,WNW,293,0.0,2.7,34,-99.99,,,-99.99,WSDL version 423,2013-02-14 09:23:00,
2013-02-14 01:28:00,37.8,12.0,30.21,WNW,293,0.5,3.1,34,-99.99,,,-99.99,WSDL version 423,2013-02-14 09:28:00,
2013-02-14 01:33:00,37.3,11.5,30.21,WNW,293,1.9,3.1,34,-99.99,,,-99.99,WSDL version 423,2013-02-14 09:33:00,
2013-02-14 01:39:00,37.0,11.9,30.21,WNW,293,0.0,3.1,35,-99.99,,,-99.99,WSDL version 423,2013-02-14 09:39:00,
2013-02-14 01:44:00,36.9,11.8,30.21,NNE,14,2.9,3.6,35,-99.99,,,-99.99,WSDL version 423,2013-02-14 09:44:00,
2013-02-14 01:49:00,37.2,12.1,30.21,NNW,338,0.5,3.6,35,-99.99,,,-99.99,WSDL version 423,2013-02-14 09:49:00,
2013-02-14 01:54:00,37.2,12.1,30.21,West,270,1.7,3.6,35,-99.99,,,-99.99,WSDL version 423,2013-02-14 09:54:00,
2013-02-14 01:59:00,37.0,12.0,30.21,West,270,0.0,3.1,36,-99.99,,,-99.99,WSDL version 423,2013-02-14 09:59:00,
2013-02-14 02:04:00,36.9,12.0,30.21,West,270,2.7,4.0,35,-99.99,,,-99.99,WSDL version 423,2013-02-14 10:04:00,
2013-02-14 02:09:00,37.1,12.0,30.21,West,270,0.4,4.0,35,-99.99,,,-99.99,WSDL version 423,2013-02-14 10:09:00,
2013-02-14 02:14:00,36.7,12.1,30.21,West,270,0.0,4.0,36,-99.99,,,-99.99,WSDL version 423,2013-02-14 10:14:00,
2013-02-14 02:19:00,36.4,12.1,30.21,West,270,0.0,2.7,37,-99.99,,,-99.99,WSDL version 423,2013-02-14 10:19:00,
2013-02-14 02:24:00,36.7,12.8,30.21,West,270,0.2,2.7,37,-99.99,,,-99.99,WSDL version 423,2013-02-14 10:24:00,
2013-02-14 02:29:00,36.7,12.9,30.21,West,270,0.0,2.7,37,-99.99,,,-99.99,WSDL version 423,2013-02-14 10:29:00,
2013-02-14 02:34:00,36.8,13.0,30.21,West,270,0.0,2.7,37,-99.99,,,-99.99,WSDL version 423,2013-02-14 10:34:00,
2013-02-14 02:39:00,36.4,12.8,30.21,West,270,0.2,2.7,37,-99.99,,,-99.99,WSDL version 423,2013-02-14 10:39:00,
2013-02-14 02:44:00,36.7,12.8,30.21,West,270,0.0,2.7,37,-99.99,,,-99.99,WSDL version 423,2013-02-14 10:44:00,
2013-02-14 02:49:00,36.6,12.8,30.21,West,270,0.0,3.1,37,-99.99,,,-99.99,WSDL version 423,2013-02-14 10:49:00,
2013-02-14 02:55:00,36.8,13.0,30.21,West,270,0.0,3.1,37,-99.99,,,-99.99,WSDL version 423,2013-02-14 10:55:00,
2013-02-14 03:00:00,36.4,13.2,30.18,West,270,0.0,3.1,38,-99.99,,,-99.99,WSDL version 423,2013-02-14 11:00:00,
2013-02-14 03:05:00,36.1,13.0,30.18,West,270,0.0,2.2,38,-99.99,,,-99.99,WSDL version 423,2013-02-14 11:05:00,
2013-02-14 03:10:00,36.2,13.4,30.18,West,270,0.0,2.2,39,-99.99,,,-99.99,WSDL version 423,2013-02-14 11:10:00,
2013-02-14 03:15:00,36.1,13.5,30.18,West,270,0.0,2.2,39,-99.99,,,-99.99,WSDL version 423,2013-02-14 11:15:00,
2013-02-14 03:20:00,35.8,13.4,30.18,West,270,0.0,2.2,40,-99.99,,,-99.99,WSDL version 423,2013-02-14 11:20:00,
2013-02-14 03:25:00,36.0,13.9,30.18,West,270,2.9,3.6,39,-99.99,,,-99.99,WSDL version 423,2013-02-14 11:25:00,
2013-02-14 03:30:00,36.9,14.2,30.18,West,270,1.5,3.6,39,-99.99,,,-99.99,WSDL version 423,2013-02-14 11:30:00,
2013-02-14 03:35:00,37.6,14.8,30.18,WSW,248,2.5,3.1,39,-99.99,,,-99.99,WSDL version 423,2013-02-14 11:35:00,
2013-02-14 03:40:00,38.7,15.8,30.18,WSW,248,2.5,4.9,39,-99.99,,,-99.99,WSDL version 423,2013-02-14 11:40:00,
2013-02-14 03:45:00,39.8,16.9,30.18,WSW,248,2.6,4.9,39,-99.99,,,-99.99,WSDL version 423,2013-02-14 11:45:00,
2013-02-14 03:50:00,40.5,17.0,30.18,WSW,248,1.9,3.6,38,-99.99,,,-99.99,WSDL version 423,2013-02-14 11:50:00,
2013-02-14 03:55:00,40.9,17.2,30.18,WSW,248,2.6,3.6,38,-99.99,,,-99.99,WSDL version 423,2013-02-14 11:55:00,
2013-02-14 04:00:00,41.3,17.6,30.18,SW,225,1.7,4.0,38,-99.99,,,-99.99,WSDL version 423,2013-02-14 12:00:00,
2013-02-14 04:05:00,40.7,17.1,30.18,ENE,68,3.3,4.9,38,-99.99,,,-99.99,WSDL version 423,2013-02-14 12:05:00,
2013-02-14 04:10:00,39.6,16.1,30.18,ENE,65,1.0,4.9,38,-99.99,,,-99.99,WSDL version 423,2013-02-14 12:10:00,
2013-02-14 04:15:00,38.7,15.5,30.21,NE,45,0.0,3.6,39,-99.99,,,-99.99,WSDL version 423,2013-02-14 12:15:00,
2013-02-14 04:20:00,38.1,15.3,30.21,NE,45,0.0,2.7,39,-99.99,,,-99.99,WSDL version 423,2013-02-14 12:20:00,
2013-02-14 04:25:00,37.8,15.1,30.21,NE,45,0.0,0.0,39,-99.99,,,-99.99,WSDL version 423,2013-02-14 12:25:00,
2013-02-14 04:30:00,38.1,15.7,30.21,NE,45,2.0,3.1,40,-99.99,,,-99.99,WSDL version 423,2013-02-14 12:30:00,
2013-02-14 04:35:00,38.1,15.9,30.21,NE,45,0.5,3.1,40,-99.99,,,-99.99,WSDL version 423,2013-02-14 12:35:00,
2013-02-14 04:41:00,37.8,15.6,30.21,NE,45,2.2,2.7,40,-99.99,,,-99.99,WSDL version 423,2013-02-14 12:41:00,
2013-02-14 04:46:00,38.2,16.0,30.21,NE,45,2.5,3.1,40,-99.99,,,-99.99,WSDL version 423,2013-02-14 12:46:00,
2013-02-14 04:51:00,38.8,16.7,30.21,NE,45,0.0,3.1,41,-99.99,,,-99.99,WSDL version 423,2013-02-14 12:51:00,
2013-02-14 04:56:00,39.0,17.2,30.21,NE,45,0.7,3.1,41,-99.99,,,-99.99,WSDL version 423,2013-02-14 12:56:00,
2013-02-14 05:01:00,38.1,15.9,30.21,NE,45,2.2,3.1,40,-99.99,,,-99.99,WSDL version 423,2013-02-14 13:01:00,
2013-02-14 05:06:00,37.0,15.0,30.21,NE,45,0.5,3.1,40,-99.99,,,-99.99,WSDL version 423,2013-02-14 13:06:00,
2013-02-14 05:11:00,36.7,14.6,30.21,NE,45,0.0,3.1,40,-99.99,,,-99.99,WSDL version 423,2013-02-14 13:11:00,
2013-02-14 05:16:00,36.3,14.4,30.21,NE,45,0.0,2.2,41,-99.99,,,-99.99,WSDL version 423,2013-02-14 13:16:00,
2013-02-14 05:21:00,35.8,14.4,30.21,NE,45,0.0,2.2,41,-99.99,,,-99.99,WSDL version 423,2013-02-14 13:21:00,
2013-02-14 05:26:00,35.4,14.1,30.21,NE,45,0.0,0.0,41,-99.99,,,-99.99,WSDL version 423,2013-02-14 13:26:00,
2013-02-14 05:31:00,35.0,13.6,30.21,NE,45,0.0,0.0,41,-99.99,,,-99.99,WSDL version 423,2013-02-14 13:31:00,
2013-02-14 05:37:00,34.9,14.0,30.21,NE,45,0.0,0.0,42,-99.99,,,-99.99,WSDL version 423,2013-02-14 13:37:00,
2013-02-14 05:42:00,35.2,14.3,30.21,NE,45,2.7,3.1,41,-99.99,,,-99.99,WSDL version 423,2013-02-14 13:42:00,
2013-02-14 05:47:00,35.9,14.5,30.21,NE,45,0.0,3.1,41,-99.99,,,-99.99,WSDL version 423,2013-02-14 13:47:00,
2013-02-14 05:52:00,36.1,15.4,30.21,NE,45,2.5,4.0,43,-99.99,,,-99.99,WSDL version 423,2013-02-14 13:52:00,
2013-02-14 05:57:00,37.8,17.3,30.21,NE,45,3.3,4.0,43,-99.99,,,-99.99,WSDL version 423,2013-02-14 13:57:00,
2013-02-14 06:02:00,38.9,18.1,30.21,NE,45,2.4,4.0,42,-99.99,,,-99.99,WSDL version 423,2013-02-14 14:02:00,
2013-02-14 06:07:00,39.9,18.7,30.21,NE,45,1.9,4.0,42,-99.99,,,-99.99,WSDL version 423,2013-02-14 14:07:00,
2013-02-14 06:12:00,40.3,19.0,30.21,NE,45,1.2,4.0,42,-99.99,,,-99.99,WSDL version 423,2013-02-14 14:12:00,
2013-02-14 06:17:00,40.4,19.1,30.21,NE,45,0.0,2.7,42,-99.99,,,-99.99,WSDL version 423,2013-02-14 14:17:00,
2013-02-14 06:22:00,40.6,19.2,30.21,NE,45,0.0,3.1,41,-99.99,,,-99.99,WSDL version 423,2013-02-14 14:22:00,
2013-02-14 06:27:00,40.9,19.2,30.21,NE,45,0.0,3.1,41,-99.99,,,-99.99,WSDL version 423,2013-02-14 14:27:00,
2013-02-14 06:32:00,40.6,19.3,30.21,NE,45,0.0,2.2,42,-99.99,,,-99.99,WSDL version 423,2013-02-14 14:32:00,
2013-02-14 06:37:00,40.2,18.9,30.21,NE,45,0.3,2.7,42,-99.99,,,-99.99,WSDL version 423,2013-02-14 14:37:00,
2013-02-14 06:42:00,40.1,18.8,30.21,NE,45,0.0,3.1,42,-99.99,,,-99.99,WSDL version 423,2013-02-14 14:42:00,
2013-02-14 06:47:00,40.1,18.9,30.21,NE,45,0.0,3.1,42,-99.99,,,-99.99,WSDL version 423,2013-02-14 14:47:00,
2013-02-14 06:52:00,40.2,19.0,30.21,NE,45,0.0,2.7,42,-99.99,,,-99.99,WSDL version 423,2013-02-14 14:52:00,
2013-02-14 06:58:00,40.5,19.2,30.24,NE,45,0.0,2.7,42,-99.99,,,-99.99,WSDL version 423,2013-02-14 14:58:00,
2013-02-14 07:03:00,41.0,19.3,30.24,NE,45,2.2,2.7,41,-99.99,,,-99.99,WSDL version 423,2013-02-14 15:03:00,
2013-02-14 07:08:00,41.4,19.5,30.24,NE,45,0.2,2.7,41,-99.99,,,-99.99,WSDL version 423,2013-02-14 15:08:00,
2013-02-14 07:13:00,42.1,20.1,30.24,NE,45,0.0,2.7,41,-99.99,,,-99.99,WSDL version 423,2013-02-14 15:13:00,
2013-02-14 07:18:00,42.5,20.4,30.24,NE,45,0.0,2.2,40,-99.99,,,-99.99,WSDL version 423,2013-02-14 15:18:00,
2013-02-14 07:23:00,43.1,20.4,30.24,NE,45,0.0,2.2,40,-99.99,,,-99.99,WSDL version 423,2013-02-14 15:23:00,
2013-02-14 07:28:00,43.5,20.8,30.24,NE,45,0.0,2.2,40,-99.99,,,-99.99,WSDL version 423,2013-02-14 15:28:00,
2013-02-14 07:34:00,44.1,20.9,30.24,NNE,31,1.1,3.6,39,-99.99,,,-99.99,WSDL version 423,2013-02-14 15:34:00,
2013-02-14 07:39:00,46.0,22.2,30.24,West,278,3.1,4.0,38,-99.99,,,-99.99,WSDL version 423,2013-02-14 15:39:00,
2013-02-14 07:44:00,47.1,22.8,30.24,West,281,3.1,6.3,38,-99.99,,,-99.99,WSDL version 423,2013-02-14 15:44:00,
2013-02-14 07:49:00,47.6,22.9,30.24,West,270,1.3,6.3,37,-99.99,,,-99.99,WSDL version 423,2013-02-14 15:49:00,
2013-02-14 07:54:00,48.2,23.2,30.24,SW,225,1.2,4.0,37,-99.99,,,-99.99,WSDL version 423,2013-02-14 15:54:00,
2013-02-14 07:59:00,49.1,23.9,30.24,SW,225,1.7,4.0,37,-99.99,,,-99.99,WSDL version 423,2013-02-14 15:59:00,
2013-02-14 08:04:00,49.5,23.8,30.24,SSW,208,2.9,4.9,36,-99.99,,,-99.99,WSDL version 423,2013-02-14 16:04:00,
2013-02-14 08:09:00,50.0,24.1,30.24,SW,225,1.7,4.9,36,-99.99,,,-99.99,WSDL version 423,2013-02-14 16:09:00,
2013-02-14 08:14:00,51.0,24.5,30.24,SW,217,0.8,4.0,35,-99.99,,,-99.99,WSDL version 423,2013-02-14 16:14:00,
2013-02-14 08:19:00,51.7,24.4,30.24,SSW,203,1.5,3.1,34,-99.99,,,-99.99,WSDL version 423,2013-02-14 16:19:00,
2013-02-14 08:24:00,52.7,25.0,30.24,South,180,0.0,3.1,33,-99.99,,,-99.99,WSDL version 423,2013-02-14 16:24:00,
2013-02-14 08:29:00,54.1,25.4,30.24,SSE,158,0.0,3.1,32,-99.99,,,-99.99,WSDL version 423,2013-02-14 16:29:00,
2013-02-14 08:34:00,54.6,24.9,30.24,SSW,203,0.6,3.6,31,-99.99,,,-99.99,WSDL version 423,2013-02-14 16:34:00,
2013-02-14 08:39:00,54.8,24.8,30.24,WSW,240,2.1,3.6,31,-99.99,,,-99.99,WSDL version 423,2013-02-14 16:39:00,
2013-02-14 08:44:00,54.8,24.6,30.27,WSW,243,0.6,3.6,30,-99.99,,,-99.99,WSDL version 423,2013-02-14 16:44:00,
2013-02-14 08:49:00,56.1,25.1,30.27,South,183,0.0,4.0,30,-99.99,,,-99.99,WSDL version 423,2013-02-14 16:49:00,
2013-02-14 08:54:00,56.7,25.0,30.27,South,180,1.8,4.0,29,-99.99,,,-99.99,WSDL version 423,2013-02-14 16:54:00,
2013-02-14 08:59:00,56.9,25.0,30.27,SSW,203,0.0,4.0,29,-99.99,,,-99.99,WSDL version 423,2013-02-14 16:59:00,
2013-02-14 09:04:00,57.2,25.3,30.27,WSW,240,2.6,4.5,29,-99.99,,,-99.99,WSDL version 423,2013-02-14 17:04:00,
2013-02-14 09:09:00,57.8,25.6,30.27,WSW,248,1.2,4.5,28,-99.99,,,-99.99,WSDL version 423,2013-02-14 17:09:00,
2013-02-14 09:15:00,58.1,25.5,30.27,WSW,248,0.0,4.0,28,-99.99,,,-99.99,WSDL version 423,2013-02-14 17:15:00,
2013-02-14 09:20:00,59.0,25.9,30.27,WSW,248,0.0,4.0,28,-99.99,,,-99.99,WSDL version 423,2013-02-14 17:20:00,
2013-02-14 09:25:00,59.8,26.5,30.27,South,180,0.0,3.1,28,-99.99,,,-99.99,WSDL version 423,2013-02-14 17:25:00,
2013-02-14 09:30:00,61.3,27.1,30.24,South,180,0.0,2.7,27,-99.99,,,-99.99,WSDL version 423,2013-02-14 17:30:00,
2013-02-14 09:35:00,62.2,27.6,30.24,East,90,1.5,3.6,26,-99.99,,,-99.99,WSDL version 423,2013-02-14 17:35:00,
2013-02-14 09:40:00,62.5,27.1,30.24,SE,135,2.2,3.6,26,-99.99,,,-99.99,WSDL version 423,2013-02-14 17:40:00,
2013-02-14 09:45:00,62.7,27.2,30.27,ESE,123,0.3,3.6,26,-99.99,,,-99.99,WSDL version 423,2013-02-14 17:45:00,
2013-02-14 09:50:00,61.6,26.4,30.27,NE,45,0.0,3.1,26,-99.99,,,-99.99,WSDL version 423,2013-02-14 17:50:00,
2013-02-14 09:55:00,63.1,27.3,30.27,NE,45,0.0,3.1,25,-99.99,,,-99.99,WSDL version 423,2013-02-14 17:55:00,
2013-02-14 10:00:00,63.5,27.1,30.24,SE,145,1.9,4.0,25,-99.99,,,-99.99,WSDL version 423,2013-02-14 18:00:00,
2013-02-14 10:05:00,63.8,27.4,30.24,SE,143,3.2,4.0,25,-99.99,,,-99.99,WSDL version 423,2013-02-14 18:05:00,
2013-02-14 10:10:00,63.7,27.3,30.24,ESE,113,0.0,4.9,25,-99.99,,,-99.99,WSDL version 423,2013-02-14 18:10:00,
2013-02-14 10:15:00,64.3,27.8,30.27,ESE,113,0.0,4.9,25,-99.99,,,-99.99,WSDL version 423,2013-02-14 18:15:00,
2013-02-14 10:20:00,63.1,26.7,30.27,NE,38,3.6,4.5,25,-99.99,,,-99.99,WSDL version 423,2013-02-14 18:20:00,
2013-02-14 10:25:00,62.9,26.5,30.27,NW,307,1.8,5.4,25,-99.99,,,-99.99,WSDL version 423,2013-02-14 18:25:00,
2013-02-14 10:30:00,63.2,26.8,30.27,NW,304,2.5,5.4,25,-99.99,,,-99.99,WSDL version 423,2013-02-14 18:30:00,
2013-02-14 10:35:00,63.5,27.1,30.27,North,356,2.9,6.3,25,-99.99,,,-99.99,WSDL version 423,2013-02-14 18:35:00,
2013-02-14 10:40:00,64.3,27.2,30.27,NE,53,1.0,6.3,24,-99.99,,,-99.99,WSDL version 423,2013-02-14 18:40:00,
2013-02-14 10:45:00,65.8,28.0,30.27,ENE,68,2.7,6.3,24,-99.99,,,-99.99,WSDL version 423,2013-02-14 18:45:00,
2013-02-14 10:51:00,66.3,28.4,30.27,ESE,118,3.6,6.3,24,-99.99,,,-99.99,WSDL version 423,2013-02-14 18:51:00,
2013-02-14 10:56:00,65.9,28.1,30.27,NNE,23,1.7,5.8,24,-99.99,,,-99.99,WSDL version 423,2013-02-14 18:56:00,
2013-02-14 11:01:00,65.8,28.1,30.27,North,354,0.0,4.9,24,-99.99,,,-99.99,WSDL version 423,2013-02-14 19:01:00,
2013-02-14 11:06:00,66.5,27.8,30.27,SSE,158,0.0,4.0,23,-99.99,,,-99.99,WSDL version 423,2013-02-14 19:06:00,
2013-02-14 11:11:00,67.3,28.2,30.27,ENE,68,3.4,5.4,23,-99.99,,,-99.99,WSDL version 423,2013-02-14 19:11:00,
2013-02-14 11:16:00,65.8,27.8,30.24,NNE,23,5.5,8.3,24,-99.99,,,-99.99,WSDL version 423,2013-02-14 19:16:00,
2013-02-14 11:21:00,65.4,27.7,30.24,ENE,73,4.8,8.3,24,-99.99,,,-99.99,WSDL version 423,2013-02-14 19:21:00,
2013-02-14 11:26:00,65.7,28.0,30.24,East,88,4.9,8.3,24,-99.99,,,-99.99,WSDL version 423,2013-02-14 19:26:00,
2013-02-14 11:31:00,65.8,27.9,30.24,NE,53,4.3,8.3,24,-99.99,,,-99.99,WSDL version 423,2013-02-14 19:31:00,
2013-02-14 11:36:00,65.6,27.7,30.24,ENE,78,5.1,8.3,23,-99.99,,,-99.99,WSDL version 423,2013-02-14 19:36:00,
2013-02-14 11:41:00,65.9,28.1,30.24,East,88,6.4,10.1,24,-99.99,,,-99.99,WSDL version 423,2013-02-14 19:41:00,
2013-02-14 11:46:00,65.9,28.1,30.24,ENE,73,5.5,10.1,24,-99.99,,,-99.99,WSDL version 423,2013-02-14 19:46:00,
2013-02-14 11:51:00,66.2,27.8,30.24,East,80,5.1,11.0,23,-99.99,,,-99.99,WSDL version 423,2013-02-14 19:51:00,
2013-02-14 11:56:00,66.5,27.6,30.24,East,101,6.6,11.0,23,-99.99,,,-99.99,WSDL version 423,2013-02-14 19:56:00,
2013-02-14 12:01:00,66.6,27.6,30.24,NE,53,5.1,10.1,23,-99.99,,,-99.99,WSDL version 423,2013-02-14 20:01:00,
2013-02-14 12:06:00,66.8,28.0,30.24,East,100,6.0,10.5,23,-99.99,,,-99.99,WSDL version 423,2013-02-14 20:06:00,
2013-02-14 12:11:00,67.2,28.2,30.24,East,98,5.4,10.5,23,-99.99,,,-99.99,WSDL version 423,2013-02-14 20:11:00,
2013-02-14 12:16:00,67.4,28.4,30.24,East,80,6.1,9.6,23,-99.99,,,-99.99,WSDL version 423,2013-02-14 20:16:00,
2013-02-14 12:21:00,67.4,28.3,30.24,ENE,75,5.0,9.6,23,-99.99,,,-99.99,WSDL version 423,2013-02-14 20:21:00,
2013-02-14 12:26:00,67.1,28.1,30.24,ENE,65,4.6,8.3,23,-99.99,,,-99.99,WSDL version 423,2013-02-14 20:26:00,
2013-02-14 12:31:00,67.6,28.5,30.24,East,93,7.0,10.1,23,-99.99,,,-99.99,WSDL version 423,2013-02-14 20:31:00,
2013-02-14 12:37:00,67.3,28.2,30.24,ENE,70,5.6,10.5,23,-99.99,,,-99.99,WSDL version 423,2013-02-14 20:37:00,
2013-02-14 12:42:00,67.3,28.2,30.24,NE,56,6.7,10.5,23,-99.99,,,-99.99,WSDL version 423,2013-02-14 20:42:00,
2013-02-14 12:47:00,67.6,28.5,30.21,ENE,68,8.1,11.0,23,-99.99,,,-99.99,WSDL version 423,2013-02-14 20:47:00,
2013-02-14 12:52:00,67.4,28.3,30.21,East,80,6.7,11.0,23,-99.99,,,-99.99,WSDL version 423,2013-02-14 20:52:00,
2013-02-14 12:57:00,67.7,28.6,30.21,East,93,6.5,10.1,23,-99.99,,,-99.99,WSDL version 423,2013-02-14 20:57:00,
2013-02-14 13:02:00,67.8,28.7,30.21,ENE,78,7.7,11.0,23,-99.99,,,-99.99,WSDL version 423,2013-02-14 21:02:00,
2013-02-14 13:07:00,67.8,28.7,30.21,ENE,78,5.7,11.0,23,-99.99,,,-99.99,WSDL version 423,2013-02-14 21:07:00,
2013-02-14 13:12:00,67.9,28.6,30.21,East,93,7.6,10.5,23,-99.99,,,-99.99,WSDL version 423,2013-02-14 21:12:00,
2013-02-14 13:18:00,68.0,28.8,30.21,East,98,7.3,11.0,23,-99.99,,,-99.99,WSDL version 423,2013-02-14 21:18:00,
2013-02-14 13:23:00,68.4,28.8,30.21,ENE,65,7.0,11.0,22,-99.99,,,-99.99,WSDL version 423,2013-02-14 21:23:00,
2013-02-14 13:28:00,68.4,28.1,30.21,East,93,8.9,11.0,22,-99.99,,,-99.99,WSDL version 423,2013-02-14 21:28:00,
2013-02-14 13:33:00,68.3,28.0,30.21,ENE,70,7.3,11.4,22,-99.99,,,-99.99,WSDL version 423,2013-02-14 21:33:00,
2013-02-14 13:38:00,68.5,28.1,30.21,ENE,78,8.3,11.4,22,-99.99,,,-99.99,WSDL version 423,2013-02-14 21:38:00,
2013-02-14 13:43:00,68.5,28.2,30.21,NE,56,7.5,12.3,22,-99.99,,,-99.99,WSDL version 423,2013-02-14 21:43:00,
2013-02-14 13:48:00,68.6,28.3,30.21,East,88,7.8,12.3,22,-99.99,,,-99.99,WSDL version 423,2013-02-14 21:48:00,
2013-02-14 13:53:00,68.1,27.8,30.21,ENE,68,7.9,13.2,22,-99.99,,,-99.99,WSDL version 423,2013-02-14 21:53:00,
2013-02-14 13:58:00,68.3,28.0,30.21,ENE,70,8.9,13.2,22,-99.99,,,-99.99,WSDL version 423,2013-02-14 21:58:00,
2013-02-14 14:03:00,68.6,28.2,30.18,East,82,7.2,13.2,22,-99.99,,,-99.99,WSDL version 423,2013-02-14 22:03:00,
2013-02-14 14:08:00,68.9,28.5,30.18,ENE,60,8.7,12.8,22,-99.99,,,-99.99,WSDL version 423,2013-02-14 22:08:00,
2013-02-14 14:13:00,68.8,28.4,30.18,ENE,76,8.1,12.8,22,-99.99,,,-99.99,WSDL version 423,2013-02-14 22:13:00,
2013-02-14 14:18:00,68.6,28.3,30.18,East,83,8.4,15.4,22,-99.99,,,-99.99,WSDL version 423,2013-02-14 22:18:00,
2013-02-14 14:23:00,68.4,28.1,30.18,East,84,8.9,17.0,22,-99.99,,,-99.99,WSDL version 423,2013-02-14 22:23:00,
2013-02-14 14:28:00,68.5,28.2,30.18,East,84,7.4,17.0,22,-99.99,,,-99.99,WSDL version 423,2013-02-14 22:28:00,
2013-02-14 14:33:00,68.8,28.4,30.18,ENE,68,6.8,12.8,22,-99.99,,,-99.99,WSDL version 423,2013-02-14 22:33:00,
2013-02-14 14:38:00,68.8,28.4,30.18,ENE,74,8.7,15.0,22,-99.99,,,-99.99,WSDL version 423,2013-02-14 22:38:00,
2013-02-14 14:43:00,69.1,28.7,30.18,East,90,6.9,15.0,22,-99.99,,,-99.99,WSDL version 423,2013-02-14 22:43:00,
2013-02-14 14:48:00,69.4,28.9,30.18,East,90,7.0,11.4,22,-99.99,,,-99.99,WSDL version 423,2013-02-14 22:48:00,
2013-02-14 14:53:00,69.4,28.9,30.18,ENE,75,7.2,11.0,22,-99.99,,,-99.99,WSDL version 423,2013-02-14 22:53:00,
2013-02-14 14:58:00,69.1,28.7,30.18,NE,51,7.4,15.4,22,-99.99,,,-99.99,WSDL version 423,2013-02-14 22:58:00,
2013-02-14 15:03:00,69.2,28.8,30.18,East,79,7.0,15.4,22,-99.99,,,-99.99,WSDL version 423,2013-02-14 23:03:00,
2013-02-14 15:08:00,69.6,29.1,30.18,East,80,8.3,12.3,22,-99.99,,,-99.99,WSDL version 423,2013-02-14 23:08:00,
2013-02-14 15:13:00,69.3,28.9,30.18,East,100,7.3,12.3,22,-99.99,,,-99.99,WSDL version 423,2013-02-14 23:13:00,
2013-02-14 15:18:00,69.2,28.8,30.18,East,79,9.3,12.3,22,-99.99,,,-99.99,WSDL version 423,2013-02-14 23:18:00,
2013-02-14 15:23:00,69.0,28.6,30.18,East,90,6.1,12.8,22,-99.99,,,-99.99,WSDL version 423,2013-02-14 23:23:00,
2013-02-14 15:28:00,69.0,28.6,30.18,East,90,7.9,13.2,22,-99.99,,,-99.99,WSDL version 423,2013-02-14 23:28:00,
2013-02-14 15:33:00,69.2,28.8,30.18,ENE,68,7.0,13.2,22,-99.99,,,-99.99,WSDL version 423,2013-02-14 23:33:00,
2013-02-14 15:38:00,69.1,28.7,30.18,East,93,9.4,13.6,22,-99.99,,,-99.99,WSDL version 423,2013-02-14 23:38:00,
2013-02-14 15:43:00,68.9,28.5,30.18,East,83,10.1,15.4,22,-99.99,,,-99.99,WSDL version 423,2013-02-14 23:43:00,
2013-02-14 15:48:00,68.6,28.3,30.18,East,84,8.1,15.4,22,-99.99,,,-99.99,WSDL version 423,2013-02-14 23:48:00,
2013-02-14 15:53:00,68.8,28.4,30.18,East,90,7.6,12.8,22,-99.99,,,-99.99,WSDL version 423,2013-02-14 23:53:00,
2013-02-14 15:58:00,68.6,28.3,30.18,ENE,75,8.7,11.0,22,-99.99,,,-99.99,WSDL version 423,2013-02-14 23:58:00,
2013-02-14 16:03:00,68.7,28.3,30.18,ENE,73,8.5,13.2,22,-99.99,,,-99.99,WSDL version 423,2013-02-15 00:03:00,
2013-02-14 16:08:00,68.8,28.4,30.18,ENE,75,7.1,13.2,22,-99.99,,,-99.99,WSDL version 423,2013-02-15 00:08:00,
2013-02-14 16:13:00,68.6,28.3,30.15,East,90,6.9,13.2,22,-99.99,,,-99.99,WSDL version 423,2013-02-15 00:13:00,
2013-02-14 16:18:00,68.4,28.1,30.15,ENE,65,8.4,12.8,22,-99.99,,,-99.99,WSDL version 423,2013-02-15 00:18:00,
2013-02-14 16:23:00,68.3,28.0,30.15,ENE,73,7.4,12.8,22,-99.99,,,-99.99,WSDL version 423,2013-02-15 00:23:00,
2013-02-14 16:28:00,68.3,28.0,30.18,East,82,5.9,10.1,22,-99.99,,,-99.99,WSDL version 423,2013-02-15 00:28:00,
2013-02-14 16:33:00,68.4,28.1,30.18,ENE,70,7.3,13.2,22,-99.99,,,-99.99,WSDL version 423,2013-02-15 00:33:00,
2013-02-14 16:38:00,68.2,27.9,30.18,ENE,73,6.0,13.2,22,-99.99,,,-99.99,WSDL version 423,2013-02-15 00:38:00,
2013-02-14 16:43:00,68.1,27.8,30.15,East,90,6.9,9.6,22,-99.99,,,-99.99,WSDL version 423,2013-02-15 00:43:00,
2013-02-14 16:48:00,68.0,27.8,30.15,East,93,7.2,11.0,22,-99.99,,,-99.99,WSDL version 423,2013-02-15 00:48:00,
2013-02-14 16:53:00,67.7,27.5,30.15,ENE,59,6.3,11.0,22,-99.99,,,-99.99,WSDL version 423,2013-02-15 00:53:00,
2013-02-14 16:58:00,67.5,28.4,30.18,ENE,65,5.1,10.5,23,-99.99,,,-99.99,WSDL version 423,2013-02-15 00:58:00,
2013-02-14 17:03:00,67.2,28.2,30.18,East,87,5.4,10.5,23,-99.99,,,-99.99,WSDL version 423,2013-02-15 01:03:00,
2013-02-14 17:08:00,66.9,27.9,30.18,ENE,75,5.3,9.6,23,-99.99,,,-99.99,WSDL version 423,2013-02-15 01:08:00,
2013-02-14 17:13:00,66.5,27.6,30.18,East,93,5.8,9.6,23,-99.99,,,-99.99,WSDL version 423,2013-02-15 01:13:00,
2013-02-14 17:18:00,66.2,27.3,30.18,ENE,78,5.8,8.7,23,-99.99,,,-99.99,WSDL version 423,2013-02-15 01:18:00,
2013-02-14 17:23:00,65.6,26.8,30.18,East,87,4.0,8.7,23,-99.99,,,-99.99,WSDL version 423,2013-02-15 01:23:00,
2013-02-14 17:28:00,65.1,26.4,30.18,East,82,4.7,8.3,23,-99.99,,,-99.99,WSDL version 423,2013-02-15 01:28:00,
2013-02-14 17:33:00,64.5,26.1,30.18,ENE,70,2.7,8.3,24,-99.99,,,-99.99,WSDL version 423,2013-02-15 01:33:00,
2013-02-14 17:38:00,63.9,26.4,30.18,East,90,3.5,5.8,24,-99.99,,,-99.99,WSDL version 423,2013-02-15 01:38:00,
2013-02-14 17:43:00,63.5,26.1,30.18,East,82,3.4,5.8,24,-99.99,,,-99.99,WSDL version 423,2013-02-15 01:43:00,
2013-02-14 17:48:00,62.9,25.6,30.18,NE,53,1.3,4.9,24,-99.99,,,-99.99,WSDL version 423,2013-02-15 01:48:00,
2013-02-14 17:53:00,62.4,25.1,30.18,ENE,60,3.2,5.4,24,-99.99,,,-99.99,WSDL version 423,2013-02-15 01:53:00,
2013-02-14 17:58:00,61.9,24.7,30.18,NE,48,3.1,5.4,24,-99.99,,,-99.99,WSDL version 423,2013-02-15 01:58:00,
2013-02-14 18:03:00,61.6,24.5,30.18,NE,48,3.2,5.8,24,-99.99,,,-99.99,WSDL version 423,2013-02-15 02:03:00,
2013-02-14 18:08:00,61.3,24.2,30.18,NE,56,3.3,5.8,24,-99.99,,,-99.99,WSDL version 423,2013-02-15 02:08:00,
2013-02-14 18:13:00,61.0,24.0,30.18,East,79,4.6,6.3,24,-99.99,,,-99.99,WSDL version 423,2013-02-15 02:13:00,
2013-02-14 18:18:00,61.0,23.9,30.18,ENE,76,4.8,6.7,24,-99.99,,,-99.99,WSDL version 423,2013-02-15 02:18:00,
2013-02-14 18:23:00,61.0,24.0,30.18,ENE,76,3.2,6.7,24,-99.99,,,-99.99,WSDL version 423,2013-02-15 02:23:00,
2013-02-14 18:28:00,60.9,23.9,30.18,ENE,59,3.1,6.7,24,-99.99,,,-99.99,WSDL version 423,2013-02-15 02:28:00,
2013-02-14 18:34:00,60.5,24.5,30.18,ENE,68,2.4,5.8,25,-99.99,,,-99.99,WSDL version 423,2013-02-15 02:34:00,
2013-02-14 18:39:00,60.2,24.3,30.18,ENE,64,2.9,4.0,25,-99.99,,,-99.99,WSDL version 423,2013-02-15 02:39:00,
2013-02-14 18:44:00,60.3,24.4,30.21,NNE,23,2.7,4.0,25,-99.99,,,-99.99,WSDL version 423,2013-02-15 02:44:00,
2013-02-14 18:49:00,60.0,24.1,30.21,NNE,17,2.9,4.9,25,-99.99,,,-99.99,WSDL version 423,2013-02-15 02:49:00,
2013-02-14 18:54:00,59.6,23.7,30.21,NNE,23,0.0,4.9,25,-99.99,,,-99.99,WSDL version 423,2013-02-15 02:54:00,
2013-02-14 18:59:00,59.1,23.3,30.21,NE,38,0.0,3.1,25,-99.99,,,-99.99,WSDL version 423,2013-02-15 02:59:00,
2013-02-14 19:04:00,58.8,23.8,30.21,NNW,338,1.1,3.1,26,-99.99,,,-99.99,WSDL version 423,2013-02-15 03:04:00,
2013-02-14 19:09:00,58.4,23.6,30.21,NW,309,1.7,3.6,26,-99.99,,,-99.99,WSDL version 423,2013-02-15 03:09:00,
2013-02-14 19:14:00,57.8,23.2,30.21,WNW,293,2.8,4.0,26,-99.99,,,-99.99,WSDL version 423,2013-02-15 03:14:00,
2013-02-14 19:19:00,57.5,22.9,30.21,WNW,293,1.0,4.0,26,-99.99,,,-99.99,WSDL version 423,2013-02-15 03:19:00,
2013-02-14 19:24:00,56.8,22.3,30.21,WNW,293,0.0,3.1,26,-99.99,,,-99.99,WSDL version 423,2013-02-15 03:24:00,
2013-02-14 19:29:00,55.9,21.9,30.21,WNW,293,0.0,0.0,27,-99.99,,,-99.99,WSDL version 423,2013-02-15 03:29:00,
2013-02-14 19:34:00,55.5,22.1,30.21,WNW,293,2.0,2.7,27,-99.99,,,-99.99,WSDL version 423,2013-02-15 03:34:00,
2013-02-14 19:39:00,54.9,21.6,30.21,WNW,293,0.0,2.7,27,-99.99,,,-99.99,WSDL version 423,2013-02-15 03:39:00,
2013-02-14 19:44:00,53.9,21.2,30.21,WNW,293,3.6,4.9,28,-99.99,,,-99.99,WSDL version 423,2013-02-15 03:44:00,
2013-02-14 19:49:00,53.4,20.9,30.21,WNW,293,0.6,4.9,28,-99.99,,,-99.99,WSDL version 423,2013-02-15 03:49:00,
2013-02-14 19:54:00,52.9,20.7,30.21,WNW,293,1.1,2.7,28,-99.99,,,-99.99,WSDL version 423,2013-02-15 03:54:00,
2013-02-14 19:59:00,52.9,21.2,30.21,West,273,2.7,3.6,29,-99.99,,,-99.99,WSDL version 423,2013-02-15 03:59:00,
2013-02-14 20:04:00,53.3,21.9,30.21,WSW,248,1.7,3.6,29,-99.99,,,-99.99,WSDL version 423,2013-02-15 04:04:00,
2013-02-14 20:09:00,52.9,21.5,30.21,WSW,248,0.0,3.1,29,-99.99,,,-99.99,WSDL version 423,2013-02-15 04:09:00,
2013-02-14 20:14:00,52.3,21.0,30.24,WSW,248,0.0,2.7,29,-99.99,,,-99.99,WSDL version 423,2013-02-15 04:14:00,
2013-02-14 20:19:00,52.0,20.7,30.24,WSW,248,1.5,3.6,29,-99.99,,,-99.99,WSDL version 423,2013-02-15 04:19:00,
2013-02-14 20:24:00,51.7,20.8,30.24,WSW,248,0.0,3.6,29,-99.99,,,-99.99,WSDL version 423,2013-02-15 04:24:00,
2013-02-14 20:29:00,52.5,21.2,30.24,WSW,248,0.0,2.2,29,-99.99,,,-99.99,WSDL version 423,2013-02-15 04:29:00,
2013-02-14 20:34:00,52.6,21.2,30.24,WSW,248,0.0,0.0,29,-99.99,,,-99.99,WSDL version 423,2013-02-15 04:34:00,
2013-02-14 20:39:00,52.6,21.3,30.24,WSW,248,0.0,0.0,29,-99.99,,,-99.99,WSDL version 423,2013-02-15 04:39:00,
2013-02-14 20:44:00,52.1,20.8,30.24,WSW,248,0.0,0.0,29,-99.99,,,-99.99,WSDL version 423,2013-02-15 04:44:00,
2013-02-14 20:50:00,52.4,21.8,30.24,WSW,248,1.7,3.6,30,-99.99,,,-99.99,WSDL version 423,2013-02-15 04:50:00,
2013-02-14 20:55:00,53.1,22.1,30.24,WSW,248,2.2,3.6,30,-99.99,,,-99.99,WSDL version 423,2013-02-15 04:55:00,
2013-02-14 21:00:00,53.1,22.5,30.24,WSW,248,2.2,3.6,30,-99.99,,,-99.99,WSDL version 423,2013-02-15 05:00:00,
2013-02-14 21:01:00,52.9,22.4,30.24,WSW,248,1.1,3.6,30,-99.99,,,-99.99,WSDL version 423,2013-02-15 05:01:00,
2013-02-14 21:02:00,52.8,22.2,30.24,WSW,248,0.0,3.6,30,-99.99,,,-99.99,WSDL version 423,2013-02-15 05:02:00,
2013-02-14 21:04:00,52.4,21.9,30.24,WSW,248,0.0,3.6,30,-99.99,,,-99.99,WSDL version 423,2013-02-15 05:04:00,
2013-02-14 21:09:00,51.3,21.0,30.24,WSW,248,0.2,3.6,30,-99.99,,,-99.99,WSDL version 423,2013-02-15 05:09:00,
2013-02-14 21:14:00,51.0,20.7,30.24,WSW,248,2.2,3.6,30,-99.99,,,-99.99,WSDL version 423,2013-02-15 05:14:00,
2013-02-14 21:19:00,51.0,20.6,30.24,WSW,248,0.0,3.6,30,-99.99,,,-99.99,WSDL version 423,2013-02-15 05:19:00,
2013-02-14 21:24:00,50.2,20.6,30.24,WSW,248,0.0,2.7,31,-99.99,,,-99.99,WSDL version 423,2013-02-15 05:24:00,
2013-02-14 21:29:00,49.6,20.9,30.24,WSW,248,0.6,2.7,32,-99.99,,,-99.99,WSDL version 423,2013-02-15 05:29:00,
2013-02-14 21:34:00,49.0,20.4,30.24,WSW,248,0.0,2.7,32,-99.99,,,-99.99,WSDL version 423,2013-02-15 05:34:00,
2013-02-14 21:39:00,48.4,20.6,30.24,WSW,248,0.6,3.1,33,-99.99,,,-99.99,WSDL version 423,2013-02-15 05:39:00,
2013-02-14 21:44:00,47.8,20.3,30.24,WSW,248,2.2,3.1,33,-99.99,,,-99.99,WSDL version 423,2013-02-15 05:44:00,
2013-02-14 21:49:00,47.7,20.0,30.24,WSW,248,1.4,3.1,33,-99.99,,,-99.99,WSDL version 423,2013-02-15 05:49:00,
2013-02-14 21:54:00,47.3,19.7,30.24,WSW,248,1.6,3.6,33,-99.99,,,-99.99,WSDL version 423,2013-02-15 05:54:00,
2013-02-14 21:59:00,46.9,19.3,30.24,WSW,248,1.3,3.6,33,-99.99,,,-99.99,WSDL version 423,2013-02-15 05:59:00,
2013-02-14 22:04:00,46.6,19.4,30.24,WSW,248,0.0,2.7,34,-99.99,,,-99.99,WSDL version 423,2013-02-15 06:04:00,
2013-02-14 22:09:00,46.5,19.7,30.24,WSW,248,0.3,3.6,34,-99.99,,,-99.99,WSDL version 423,2013-02-15 06:09:00,
2013-02-14 22:14:00,46.7,19.8,30.27,WSW,248,1.4,3.6,34,-99.99,,,-99.99,WSDL version 423,2013-02-15 06:14:00,
2013-02-14 22:19:00,46.6,19.7,30.27,WSW,248,0.0,3.6,34,-99.99,,,-99.99,WSDL version 423,2013-02-15 06:19:00,
2013-02-14 22:24:00,46.2,19.9,30.27,WSW,248,1.2,3.1,35,-99.99,,,-99.99,WSDL version 423,2013-02-15 06:24:00,
2013-02-14 22:29:00,46.5,20.3,30.27,WSW,248,3.3,4.5,35,-99.99,,,-99.99,WSDL version 423,2013-02-15 06:29:00,